120P/Mueller 1 (2021)

Japanese version
Home page
Updated on February 21, 2021

---------------------------------------------------------------------

* Profile

* Orbital Elements

Epoch 2020 May 31.0 TT = JDT 2459000.5
T 2021 May 6.68306 TT                                   Spoto
q   2.4788714            (2000.0)            P               Q
n   0.12475599     Peri.   36.41208     +0.81795723     -0.57526918
a   3.9666917      Node   358.69232     +0.48681366     +0.69528038
e   0.3750784      Incl.    8.48547     +0.30652640     +0.43087186
P   7.90
From 146 observations 1987 Oct. 18-2020 Aug. 16, mean residual 0".9.
     Nongravitational parameters A1 = -3.09, A2 = -0.1570.

* Magnitudes Graph

        m1 = 3.0 + 5 log d + 33 log r(t - 45)

---------------------------------------------------------------------

The orbital elements are published on M.P.E.C. 2020-S188.
The magnitudes graphs are made with Comet for Windows.

---------------------------------------------------------------------

Copyright(C) Seiichi Yoshida (comet@aerith.net). All rights reserved.